Wind_Speed
49 57 59 59 57 58 56 58 57 52 50 47 43 36 35 33 32 37 41 43 41 45 46 47 42 45 53 49 46 37 37 38 35 38 35 35 36 37
58 59 61 63 59 58 62 59 59 49 54 51 46 41 34 33 36 36 42 39 44 45 45 49 49 42 50 54 52 43 42 45 43 42 38 40 40 40
65 63 67 66 66 65 66 65 63 54 55 50 50 43 40 35 34 38 41 41 37 42 43 47 50 51 45 53 55 49 46 48 49 46 44 47 47 48
68 72 69 74 72 72 70 67 64 61 54 52 50 47 42 39 37 36 42 41 39 36 40 45 51 53 49 54 56 52 51 52 51 51 52 52 53 54
73 73 74 76 77 76 71 70 70 65 57 54 53 48 46 44 44 42 40 45 44 43 40 43 43 46 43 53 58 56 54 57 55 56 56 58 61 63
76 75 77 78 78 78 74 74 74 63 61 57 55 54 51 51 48 48 43 43 46 46 45 43 42 44 44 52 59 60 60 59 61 61 59 60 61 61
79 80 82 83 78 78 77 75 71 65 66 61 58 55 54 52 50 50 46 42 44 47 45 40 43 43 46 51 62 64 65 64 63 63 61 61 64 63
82 81 83 87 85 83 79 75 71 70 70 60 59 56 54 52 51 49 47 43 44 47 48 42 44 47 47 50 59 68 69 67 67 64 65 66 66 67
81 81 84 83 84 83 78 73 73 69 65 65 63 60 59 56 54 54 50 49 46 48 50 50 46 48 52 53 56 61 70 72 72 72 72 72 70 69
88 86 85 84 82 80 76 72 70 68 64 62 63 58 58 59 56 57 52 52 44 48 51 50 47 47 48 51 57 63 62 64 68 69 67 67 67 66
89 89 86 82 80 78 74 68 65 59 56 60 63 66 64 57 58 56 54 54 57 50 51 50 48 46 43 46 46 51 55 58 60 60 62 64 66 68
83 80 79 78 76 74 68 59 55 57 56 56 57 57 59 59 58 59 55 56 58 54 52 51 49 47 44 44 49 50 52 55 58 61 64 66 68 69
71 71 71 69 69 64 58 56 55 54 51 51 52 56 61 59 59 58 56 58 57 53 55 53 50 49 46 47 45 51 53 58 59 60 63 65 66 67
61 61 63 62 62 59 59 54 58 59 57 56 54 57 59 59 59 58 58 56 55 54 56 55 54 51 50 48 52 55 58 55 60 63 67 68 68 69
58 56 58 60 61 60 62 56 62 60 59 59 63 61 57 61 61 61 61 58 55 52 54 56 58 59 56 51 51 53 55 57 59 62 63 64 65 67
53 58 58 58 59 62 61 61 59 59 61 65 65 61 63 62 64 63 66 63 58 55 55 56 59 62 60 59 57 56 58 60 63 64 66 69 73 74
53 53 61 63 60 61 61 59 59 63 66 66 63 66 67 66 65 72 66 65 64 61 61 62 61 64 65 66 66 65 64 66 68 68 69 72 74 78
54 54 54 59 64 66 65 66 70 69 68 69 69 70 69 70 71 57 54 55 59 62 66 68 69 67 68 74 73 71 72 70 72 74 76 78 80 82
58 57 56 60 63 65 67 66 66 69 69 68 67 65 72 71 60 60 58 56 57 60 63 65 67 69 69 71 76 77 76 76 77 77 78 79 81 83
68 65 61 62 62 63 66 67 69 70 70 71 69 72 74 65 63 66 70 67 67 59 61 66 65 68 70 72 74 78 80 81 82 83 84 86 87 90
76 74 71 69 69 70 70 72 73 73 71 69 70 72 72 67 67 66 66 67 67 62 65 66 68 69 71 71 72 75 79 82 83 85 88 90 93 94
75 78 77 75 76 76 77 76 75 73 74 73 72 68 68 70 70 73 71 68 69 70 63 63 70 73 75 75 76 77 78 82 85 89 92 93 96 98
73 78 83 83 80 81 80 80 78 74 76 77 77 74 76 77 75 76 77 77 77 76 70 67 68 72 74 77 78 80 84 86 90 91 92 95 97 99
Wind_Direction
255 256 262 274 274 274 280 291 300 304 300 300 308 308 313 283 271 256 254 254 252 251 253 257 259 252 240 241 247 254 265 264 261 261 256 258 260 265
249 253 260 268 268 271 282 286 295 296 299 297 302 301 306 309 278 264 260 259 257 254 255 256 258 257 244 240 241 243 252 258 258 255 256 257 260 263
249 253 255 265 268 275 279 289 293 292 293 294 295 297 299 301 302 271 260 260 264 260 257 257 260 263 257 241 238 242 248 253 258 258 258 258 260 263
247 251 257 262 269 275 279 284 287 289 290 292 291 292 294 300 304 297 266 260 263 264 257 257 256 261 263 238 237 242 247 250 255 258 261 264 265 267
246 252 256 262 265 270 275 280 284 286 286 285 284 287 288 294 297 302 286 259 260 266 269 262 262 263 261 239 237 240 247 249 252 256 261 265 268 270
248 255 259 263 266 268 271 275 278 279 282 279 279 285 283 288 296 296 297 271 257 262 269 269 263 260 258 240 238 241 245 250 251 257 261 266 270 274
248 251 254 257 261 266 268 272 276 275 278 275 276 278 282 283 289 294 294 283 262 262 264 267 266 263 258 250 239 241 244 249 253 257 262 267 271 273
246 251 253 255 260 262 266 270 271 272 274 273 275 275 279 277 281 290 289 289 267 258 259 267 269 267 262 256 247 245 247 249 253 258 261 265 269 272
249 252 253 255 258 261 264 265 268 268 269 272 271 270 278 276 278 282 288 289 274 261 262 264 266 267 260 257 252 252 251 253 256 259 262 266 270 273
251 253 255 256 258 259 261 263 265 265 264 263 263 269 270 277 276 279 281 289 283 267 264 264 268 271 263 256 253 251 253 257 260 262 265 267 270 274
251 252 253 255 257 258 260 263 265 260 255 259 263 266 270 270 272 275 281 289 286 277 263 265 269 273 270 249 251 256 255 256 258 260 262 264 266 269
249 248 249 250 253 255 258 256 256 255 254 257 261 262 264 265 270 277 282 285 285 273 261 260 264 271 269 255 246 256 259 259 260 261 262 264 266 269
251 251 250 250 250 251 250 249 249 249 252 255 257 262 266 265 271 275 280 284 283 267 259 258 260 263 264 255 253 252 254 259 262 265 266 268 269 273
249 248 245 244 243 240 241 246 248 251 257 259 261 264 265 270 272 271 279 280 277 266 258 258 258 262 262 262 259 256 259 262 262 265 268 269 270 274
244 242 241 236 237 238 244 250 254 255 255 256 258 267 267 268 269 274 277 277 273 263 260 258 260 261 260 260 257 258 260 263 265 267 268 270 274 277
244 239 239 238 237 238 243 246 251 253 254 258 263 268 267 269 271 275 277 269 266 262 258 260 259 261 262 264 264 266 267 269 271 273 274 275 276 277
245 240 237 238 234 237 240 242 246 253 260 260 266 266 267 271 271 279 268 263 265 260 258 257 259 258 260 261 260 261 263 265 267 270 273 275 275 277
236 237 236 236 235 239 241 245 246 254 260 261 263 266 267 272 278 261 263 264 263 263 262 261 260 260 260 259 262 263 264 268 270 270 272 274 275 278
233 235 235 235 235 241 244 247 248 253 256 259 262 268 271 274 264 255 258 266 269 269 266 262 261 261 264 264 263 264 266 267 269 272 273 275 277 278
234 235 236 238 241 244 247 250 251 252 253 257 262 262 268 267 260 257 260 265 270 273 270 265 262 263 265 264 264 265 266 268 269 271 272 275 276 277
233 235 237 238 242 244 246 249 251 254 257 260 263 263 266 260 259 260 261 266 267 274 273 268 263 261 262 265 265 266 265 266 267 270 271 273 275 278
236 235 237 237 240 242 248 250 253 256 258 260 261 263 260 262 264 268 267 271 270 276 271 267 265 264 265 266 266 267 268 269 269 271 272 273 274 277
236 235 236 238 240 242 245 250 251 253 255 257 260 262 259 259 260 262 264 271 271 274 270 267 269 267 267 268 267 267 268 269 271 273 275 276 279 280
Height
10614 10614 10616 10616 10615 10615 10613 10614 10612 10609 10606 10601 10602 10600 10595 10592 10593 10595 10595 10595 10596 10597 10598 10599 10599 10601 10605 10608 10611 10613 10614 10614 10614 10613 10613 10613 10613 10614
10599 10601 10601 10601 10604 10604 10604 10604 10603 10601 10600 10594 10593 10592 10590 10586 10584 10585 10585 10585 10585 10586 10587 10587 10588 10591 10592 10596 10600 10603 10604 10604 10604 10604 10604 10603 10603 10603
10586 10586 10590 10590 10591 10591 10593 10593 10593 10592 10593 10588 10583 10583 10581 10580 10577 10574 10575 10576 10575 10575 10575 10576 10577 10578 10580 10583 10588 10591 10593 10593 10594 10593 10592 10592 10593 10593
10570 10573 10577 10578 10579 10578 10579 10581 10583 10583 10583 10579 10575 10573 10571 10570 10568 10566 10563 10565 10565 10565 10564 10566 10566 10566 10566 10570 10575 10578 10581 10582 10583 10582 10581 10582 10582 10581
10555 10559 10562 10564 10567 10567 10567 10568 10571 10572 10572 10571 10566 10564 10561 10559 10558 10556 10554 10553 10554 10554 10554 10554 10555 10555 10555 10557 10562 10565 10567 10568 10570 10570 10570 10570 10569 10569
10540 10544 10547 10548 10551 10552 10555 10556 10557 10560 10560 10560 10557 10554 10551 10548 10547 10545 10543 10540 10542 10542 10542 10541 10542 10543 10543 10544 10548 10551 10551 10554 10557 10558 10558 10558 10557 10555
10521 10527 10530 10532 10534 10536 10539 10541 10544 10544 10546 10547 10546 10543 10540 10537 10537 10534 10533 10530 10529 10530 10529 10529 10530 10532 10532 10533 10535 10536 10537 10540 10542 10544 10544 10543 10542 10540
10504 10507 10512 10514 10517 10520 10523 10526 10528 10528 10531 10532 10532 10531 10527 10525 10525 10524 10521 10519 10518 10518 10518 10519 10519 10520 10520 10521 10522 10523 10525 10527 10528 10529 10529 10529 10527 10525
10484 10488 10491 10495 10497 10501 10505 10508 10510 10513 10514 10515 10517 10516 10514 10512 10513 10510 10509 10508 10505 10505 10507 10507 10507 10507 10507 10507 10509 10510 10511 10513 10514 10514 10514 10513 10511 10510
10462 10466 10470 10475 10479 10482 10485 10490 10492 10494 10497 10499 10499 10501 10499 10499 10498 10497 10496 10494 10494 10493 10493 10494 10494 10494 10493 10493 10494 10495 10497 10498 10498 10498 10498 10497 10496 10495
10441 10445 10451 10456 10458 10462 10468 10472 10473 10476 10478 10481 10482 10485 10484 10485 10484 10483 10481 10480 10479 10479 10479 10480 10480 10480 10479 10480 10482 10482 10482 10483 10483 10483 10482 10481 10480 10479
10419 10424 10428 10435 10438 10443 10450 10455 10458 10459 10461 10464 10467 10467 10467 10469 10469 10468 10467 10465 10463 10463 10464 10466 10467 10467 10466 10467 10468 10469 10468 10469 10468 10468 10467 10465 10464 10462
10398 10402 10407 10413 10419 10426 10433 10438 10441 10442 10446 10449 10450 10451 10452 10453 10454 10452 10451 10451 10447 10447 10448 10451 10453 10453 10453 10453 10453 10453 10455 10454 10453 10452 10451 10449 10448 10446
10378 10383 10389 10396 10402 10409 10417 10421 10424 10427 10431 10432 10433 10435 10437 10437 10436 10435 10435 10434 10433 10433 10433 10436 10437 10438 10438 10438 10438 10438 10438 10439 10438 10436 10435 10432 10430 10428
10361 10366 10372 10379 10385 10393 10400 10406 10404 10410 10414 10416 10417 10418 10419 10419 10419 10419 10418 10418 10418 10418 10420 10421 10421 10421 10422 10425 10423 10423 10422 10422 10421 10419 10418 10416 10413 10410
10345 10351 10357 10363 10369 10375 10382 10388 10390 10393 10396 10398 10400 10401 10401 10401 10401 10402 10401 10400 10402 10403 10404 10405 10405 10405 10406 10407 10407 10407 10406 10406 10404 10402 10400 10398 10395 10392
10330 10334 10339 10346 10352 10359 10365 10371 10373 10374 10378 10380 10381 10382 10383 10384 10383 10382 10381 10382 10383 10386 10386 10387 10388 10389 10390 10390 10390 10389 10388 10387 10385 10383 10381 10379 10376 10372
10313 10318 10323 10329 10336 10342 10347 10353 10357 10359 10360 10362 10363 10363 10364 10365 10365 10363 10364 10364 10364 10366 10367 10369 10370 10370 10371 10370 10371 10370 10369 10369 10368 10365 10362 10359 10356 10354
10297 10303 10307 10312 10319 10325 10329 10333 10338 10340 10342 10344 10345 10344 10344 10345 10345 10346 10347 10348 10348 10347 10347 10349 10350 10351 10351 10350 10351 10352 10351 10350 10347 10345 10343 10340 10336 10332
10279 10286 10291 10297 10301 10306 10310 10314 10317 10320 10322 10325 10327 10326 10325 10327 10328 10329 10330 10330 10329 10330 10330 10331 10331 10330 10330 10331 10331 10332 10331 10329 10327 10324 10322 10319 10314 10310
10258 10265 10271 10277 10282 10286 10290 10294 10296 10299 10302 10304 10306 10306 10305 10307 10308 10309 10309 10310 10311 10312 10312 10312 10312 10311 10310 10310 10310 10308 10307 10305 10303 10300 10297 10294 10291 10287
10234 10243 10248 10256 10260 10265 10270 10273 10275 10278 10280 10283 10286 10286 10286 10287 10288 10288 10290 10290 10291 10293 10293 10293 10292 10292 10292 10291 10290 10289 10287 10284 10281 10278 10274 10271 10266 10262
10211 10219 10226 10231 10238 10243 10247 10251 10255 10258 10260 10262 10264 10266 10267 10270 10271 10270 10270 10271 10272 10272 10273 10272 10271 10271 10271 10270 10269 10267 10264 10261 10258 10256 10252 10246 10242 10237